Home   Weather   Alajuela   Past weeks

Flag for Costa Rica Past Weather in Alajuela, Costa Rica — Yesterday and Last 2 Weeks

Now
68 °F

Partly cloudy.


Feels Like: 68 °F
Forecast: 66 / 81 °F
Wind: 2 mph from Southeast

Location: Juan Santamaria

Current Time: Sep 24, 2016 at 11:27:26 PM

Latest Report: Sep 24, 2016 at 11:00 PM


Visibility: N/A

Pressure: 30.07 "Hg (26.90 "Hg at 955m altitude)

Humidity: 94%

Dew Point: 66 °F

Location of AlajuelaLocation

Past Weather in Alajuela — Graph

°F

Alajuela Temperature Yesterday

Maximum temperature yesterday: 81 °F (at 10:00 AM)
Minimum temperature yesterday: 63 °F (at 4:00 AM)
Average temperature yesterday: 71 °F

High & Low Weather Summary for the Past Weeks

 TemperatureHumidityPressure
High88 °F (Sep 19, 2:00 PM)94% (Sep 9, 10:00 PM)30.14 "Hg (Sep 9, 10:00 PM)
Low63 °F (Sep 23, 4:00 AM)38% (Sep 19, 1:00 PM)29.91 "Hg (Sep 19, 3:00 PM)
Average72 °F79%30.03 "Hg
* Reported Sep 9 10:00 PM — Sep 24 10:00 PM, Alajuela, Weather by CustomWeather, © 2016

Note: Actual official high and low records may vary slightly from our data, if they occured in-between our weather recording intervals... More about our weather records

Advertising

Alajuela Weather History for the Previous 24 Hours

Scroll right to see more
 ConditionsComfort  
Time TempWeatherWind HumidityBarometerVisibility
10:00 PM
Sat, Sep 24
68 °FRain. Passing clouds.No wind94%30.08 "HgN/A
9:00 PM70 °FPartly cloudy.No wind94%30.08 "HgN/A
8:00 PM70 °FPartly cloudy.2 mph94%30.07 "HgN/A
7:00 PM70 °FPassing clouds.2 mph94%30.06 "Hg1 mi
6:00 PM72 °FPartly cloudy.No wind88%30.03 "HgN/A
5:00 PM72 °FScattered clouds.No wind88%30.01 "HgN/A
4:00 PM70 °FThunderstorms. Broken clouds.3 mph94%30.01 "Hg2 mi
3:00 PM73 °FSprinkles. Broken clouds.12 mph89%30.00 "HgN/A
2:21 PM77 °FThundershowers. Scattered clouds.12 mph79%30.00 "HgN/A
2:00 PM79 °FBroken clouds.14 mph70%30.00 "HgN/A
1:00 PM81 °FBroken clouds.16 mph70%30.02 "HgN/A
12:00 PM79 °FPartly sunny.17 mph70%30.05 "HgN/A
11:00 AM82 °FPartly sunny.10 mph51%30.06 "HgN/A
10:00 AM81 °FPartly sunny.16 mph54%30.08 "HgN/A
9:00 AM79 °FPartly sunny.12 mph58%30.09 "HgN/A
8:00 AM75 °FScattered clouds.9 mph65%30.09 "HgN/A
7:00 AM75 °FScattered clouds.7 mph69%30.08 "HgN/A
6:00 AM68 °FScattered clouds.6 mph83%30.05 "HgN/A
5:00 AM68 °FPassing clouds.7 mph83%30.03 "HgN/A
4:00 AM68 °FClear.No wind83%30.02 "Hg10 mi
3:00 AM68 °FClear.5 mph83%30.02 "Hg10 mi
2:00 AM66 °FClear.3 mph88%30.03 "Hg10 mi
1:00 AM68 °FPassing clouds.No wind94%30.05 "HgN/A
12:00 AM68 °FFog.No wind94%30.07 "Hg3 mi
11:00 PM
Fri, Sep 23
68 °FPassing clouds.No wind94%30.09 "HgN/A
Weather by CustomWeather, © 2016

See weather overviewHow to use our weather pages